Moose, Wyoming, United States (83012)
Lat: 43.66N, Lon: 110.72W
Wx Zone: WYZ013
Local Info
Past Weather Observations for Tuesday, April 14, 2015

NOTE: This archive is for the closest National Weather Service station to Moose. Information may differ from the station used for current weather conditions.

Click here for Long-term Archive

Time Weather Temperature Dewpoint Humidity Pressure Winds Precip Visibility
23:55
Mostly Cloudy
30°F / -1°C 25°F / -4°C 80% 29.83 in
(1010 mb)
S 12.7 mph
(S 20 kph)
- 10SM
23:35
Mostly Cloudy
30°F / -1°C 25°F / -4°C 80% 29.83 in
(1010 mb)
S 11.5 mph
(S 19 kph)
- 10SM
23:15
Overcast
30°F / -1°C 25°F / -4°C 80% 29.83 in
(1010 mb)
SW 11.5 mph
(SW 19 kph)
- 10SM
22:55
Overcast
30°F / -1°C 25°F / -4°C 80% 29.83 in
(1010 mb)
SW 11.5 mph
(SW 19 kph)
- 10SM
22:35
Overcast
30°F / -1°C 25°F / -4°C 80% 29.83 in
(1010 mb)
SSE 10.4 mph
(SSE 17 kph)
- 10SM
22:15
Overcast
30°F / -1°C 25°F / -4°C 80% 29.83 in
(1010 mb)
S 12.7 mph
(S 20 kph)
- 10SM
21:55
Overcast
32°F / 0°C 25°F / -4°C 75% 29.83 in
(1010 mb)
S 16.1 mph
(S 26 kph)
- 10SM
21:35
Mostly Cloudy
32°F / 0°C 23°F / -5°C 69% 29.83 in
(1010 mb)
S 12.7 mph
(S 20 kph)
- 10SM
21:15
Overcast
34°F / 1°C 23°F / -5°C 65% 29.83 in
(1010 mb)
S 13.8 mph
(S 22 kph)
- 10SM
20:55
Overcast
34°F / 1°C 23°F / -5°C 65% 29.83 in
(1010 mb)
S 10.4 mph
(S 17 kph)
- 10SM
20:35
Overcast
34°F / 1°C 21°F / -6°C 60% 29.83 in
(1010 mb)
SSW 8.1 mph
(SSW 13 kph)
- 10SM
20:15
Overcast
36°F / 2°C 25°F / -4°C 65% 29.8 in
(1009 mb)
S 11.5 mph
(S 19 kph)
- 10SM
19:55
Overcast
36°F / 2°C 21°F / -6°C 56% 29.8 in
(1009 mb)
SW 15 mph
(SW 24 kph)
- 10SM
18:51
Overcast
Showers In Vicinity
37°F / 3°C 25°F / -4°C 60% 29.8 in
(1009 mb)
SW 8.1 mph
(SW 13 kph)
- 10SM
17:57
Mostly Cloudy
Showers In Vicinity
39°F / 4°C 28°F / -2°C 65% 29.77 in
(1008 mb)
SSE 6.9 mph
(SSE 11 kph)
- 10SM
16:51
Partly Cloudy
Showers In Vicinity
43°F / 6°C 34°F / 1°C 71% 29.71 in
(1006 mb)
SSW 16.1 mph
(SSW 26 kph)
- 10SM
15:51
Overcast
54°F / 12°C 27°F / -3°C 35% 29.65 in
(1004 mb)
E 4.6 mph
(E 7 kph)
- 10SM
14:51
Overcast
54°F / 12°C 28°F / -2°C 38% 29.68 in
(1005 mb)
S 11.5 mph
(S 19 kph)
- 10SM
13:51
Mostly Cloudy
61°F / 16°C 21°F / -6°C 22% 29.65 in
(1004 mb)
SW 18.4 mph
(SW 30 kph)
- 10SM
12:51
Overcast
61°F / 16°C 18°F / -8°C 19% 29.65 in
(1004 mb)
SW 20.7 mph
(SW 33 kph)
- 10SM
11:51
Overcast
57°F / 14°C 16°F / -9°C 20% 29.71 in
(1006 mb)
SSE 9.2 mph
(SSE 15 kph)
- 10SM
10:51
Partly Cloudy
59°F / 15°C 16°F / -9°C 18% 29.74 in
(1007 mb)
SSE 9.2 mph
(SSE 15 kph)
- 10SM
09:51
Clear
57°F / 14°C 16°F / -9°C 20% 29.77 in
(1008 mb)
Calm - 10SM
08:51
Partly Cloudy
48°F / 9°C 19°F / -7°C 32% 29.8 in
(1009 mb)
Calm - 10SM
07:51
Clear
45°F / 7°C 19°F / -7°C 37% 29.83 in
(1010 mb)
Calm - 10SM
06:53
Clear
34°F / 1°C 25°F / -4°C 70% 29.86 in
(1011 mb)
Variable 6.9 mph
(Variable 11 kph)
- 10SM
05:51
Mostly Cloudy
30°F / -1°C 27°F / -3°C 86% 29.89 in
(1012 mb)
Calm - 10SM
05:35
Mostly Cloudy
30°F / -1°C 27°F / -3°C 86% 29.89 in
(1012 mb)
Calm - 10SM
05:15
Mostly Cloudy
30°F / -1°C 25°F / -4°C 80% 29.89 in
(1012 mb)
WNW 3.5 mph
(WNW 6 kph)
- 10SM
04:55
Clear
28°F / -2°C 25°F / -4°C 86% 29.89 in
(1012 mb)
Calm - 10SM
04:35
Clear
30°F / -1°C 25°F / -4°C 80% 29.89 in
(1012 mb)
E 5.8 mph
(E 9 kph)
- 10SM
04:15
Partly Cloudy
28°F / -2°C 25°F / -4°C 86% 29.92 in
(1013 mb)
NNE 5.8 mph
(NNE 9 kph)
- 10SM
03:55
Partly Cloudy
30°F / -1°C 27°F / -3°C 86% 29.92 in
(1013 mb)
N 5.8 mph
(N 9 kph)
- 10SM
03:35
Partly Cloudy
30°F / -1°C 27°F / -3°C 86% 29.95 in
(1014 mb)
N 4.6 mph
(N 7 kph)
- 10SM
03:15
Mostly Cloudy
30°F / -1°C 27°F / -3°C 86% 29.95 in
(1014 mb)
N 8.1 mph
(N 13 kph)
- 10SM
02:55
Partly Cloudy
30°F / -1°C 27°F / -3°C 86% 29.95 in
(1014 mb)
N 8.1 mph
(N 13 kph)
- 10SM
02:35
Mostly Cloudy
30°F / -1°C 27°F / -3°C 86% 29.95 in
(1014 mb)
N 8.1 mph
(N 13 kph)
- 10SM
02:15
Mostly Cloudy
30°F / -1°C 25°F / -4°C 80% 29.95 in
(1014 mb)
N 6.9 mph
(N 11 kph)
- 10SM
01:55
Mostly Cloudy
30°F / -1°C 27°F / -3°C 86% 29.98 in
(1015 mb)
N 6.9 mph
(N 11 kph)
- 10SM
01:35
Partly Cloudy
30°F / -1°C 25°F / -4°C 80% 29.98 in
(1015 mb)
N 8.1 mph
(N 13 kph)
- 10SM
01:15
Partly Cloudy
28°F / -2°C 25°F / -4°C 86% 29.98 in
(1015 mb)
N 8.1 mph
(N 13 kph)
- 10SM
00:55
Clear
28°F / -2°C 25°F / -4°C 86% 30.01 in
(1016 mb)
N 5.8 mph
(N 9 kph)
- 10SM
00:35
Clear
30°F / -1°C 23°F / -5°C 75% 30.01 in
(1016 mb)
Calm - 10SM
00:15
Clear
34°F / 1°C 21°F / -6°C 60% 30.01 in
(1016 mb)
Calm - 10SM
Time Weather Temperature Dewpoint Humidity Pressure Winds Precip Visibility


Weather for websites

WeatherForYou.com, LLC is not responsible for any damages or problems caused by this service. Current weather conditions are obtained from the closest station including government and personal stations which may have varying degrees of accuracy. Weather forecasts are derived from the NOAA NDFD. Like all things, this site belongs to Jesus Christ... He just trusts me to maintain it. If you have any questions or comments email webmaster@weatherforyou.com

Copyright © 2015, WeatherForYou.com LLC. All rights reserved.